[[{"header":{"parameterUnit":"m.s-1","parameterCategory":1,"la1":30.2991,"la2":30.254,"lo1":-89.0895,"lo2":-89.0444,"dy":0.0017,"dx":0.0017,"nx":28,"ny":28,"refTime":"2025-01-14T03:00:00:Z","depth":0,"parameterNumber":2,"parameterNumberName":"U-component_of_WINDS"},"data":[0,0,0,0,0,0,0,0,0,0,0,0,0,0,0,0,0,0,0,0,0,0,0,0,0,0,0,0,0,0,0,0,0,0,0,0,0,0,0,0,0,0,0,0,0,0,0,0,0,0,0,0,0,0,0,0,0,0,0.0247,0.0246,0,0.0187,0.0186,0.0186,0.0184,0.0185,0.0185,0.0186,0.0122,0.0119,0.0117,0,0,0,0,0,0,0,0,0,0,0,0,0,0.0358,0.0356,0.0247,0.0246,0.0246,0.0187,0.0186,0.0185,0.0184,0.0185,0.0186,0.0187,0.0122,0.012,0.0117,0,0,0,0,0,0,0,0,0,0,0,0,0,0.0305,0.0355,0.0247,0.0238,0.0236,0.0187,0.0186,0.0185,0.0184,0.0185,0.0186,0.0187,0.0123,0.012,0.0116,0.0072,0,0,0.0105,0.0104,0,0,0,0,0,0,0,0,0.0308,0.0301,0.024,0.0238,0.0237,0.0194,0.0202,0.0147,0.0183,0.0204,0.0186,0.0187,0.0145,0.0139,0.0126,0.0069,0.0066,0.0105,0.0103,0.0101,0.01,0,0,0,0,0,0,0,0.0311,0.0303,0.0223,0.0239,0.0237,0.0236,0.0229,0.0191,0.0168,0.0202,0.0202,0.0195,0.0144,0.0129,0.0124,0.0065,0.0105,0.0102,0.01,0.0098,-0.0033,-0.0034,0,0,0,0,0,0,0.0317,0.0306,0.0225,0.0221,0.0276,0.0233,0.0226,0.0207,0.0169,0.0164,0.0194,0.0195,0.0135,0.0128,0.0122,0.0066,0.0101,0.0098,0.0096,-0.0032,-0.0033,-0.0034,0,0,0,0,0,0,0.032,0.031,0.0228,0.0264,0.0253,0.023,0.0208,0.0205,0.019,0.0163,0.0159,0.0183,0.0135,0.0127,0.0084,0.0064,0.0096,0.0093,-0.003,-0.0032,-0.0034,-0.0045,0,0,0,0,0,0,0.0323,0.0311,0.0294,0.0263,0.0251,0.0192,0.0207,0.0203,0.0184,0.0185,0.0151,0.0147,0.0136,0.0089,0.008,0.0059,0.009,-0.0028,-0.0031,-0.0033,-0.0043,-0.0047,-0.0051,0,0,0,0,0,0.0327,0.0293,0.0294,0.0284,0.023,0.0191,0.0183,0.0172,0.0183,0.0165,0.0148,0.0148,0.0068,0.0085,0.0075,0.0052,-0.0027,-0.003,-0.0033,-0.0041,-0.0046,-0.0051,0,0,0,0,0,0,0.0321,0.0289,0.0289,0.0245,0.022,0.019,0.0168,0.0167,0.0139,0.014,0.0126,0.0119,0.0076,0.006,0.008,0.0007,0.0021,0.0016,0.0019,0.0014,0.001,0.0014,0.0087,0,0,0,0,0,0.0315,0.0286,0.0259,0.0223,0.0211,0.0192,0.0174,0.0167,0.0141,0.0131,0.011,0.0084,0.0053,0.0033,0.0003,-0.0045,-0.0053,-0.0065,-0.0069,-0.0072,-0.0077,-0.0104,-0.0111,-0.0044,-0.0044,-0.0044,0,0,0.0301,0.028,0.0263,0.0221,0.0202,0.0171,0.0183,0.015,0.0127,0.0125,0.0084,0.0068,0.0038,-0.0008,-0.0029,-0.0022,-0.0097,-0.0076,-0.0078,-0.0081,-0.0108,-0.0114,-0.012,-0.0046,-0.0046,-0.0045,0,0,0.0261,0.0243,0.021,0.019,0.0161,0.0148,0.0141,0.0111,0.01,0.0059,0.0056,0.0028,-0.0025,-0.0046,-0.0064,-0.0112,-0.0114,-0.0122,-0.0143,-0.0169,-0.0174,-0.0179,-0.0198,-0.0204,-0.0126,-0.0126,-0.0126,0,0.0247,0.0202,0.0192,0.016,0.0141,0.0139,0.0105,0.0086,0.0048,0.0035,0.0043,-0.0024,-0.0044,-0.0095,-0.0107,-0.0121,-0.0131,-0.0119,-0.0172,-0.0177,-0.0182,-0.02,-0.0207,-0.0127,-0.0127,-0.0127,-0.0127,0,0.0186,0.0155,0.0132,0.0096,0.0075,0.0042,0.0026,0.0005,0.0001,-0.0013,-0.0056,-0.008,-0.0115,-0.0128,-0.0133,-0.018,-0.0175,-0.0169,-0.0155,-0.0189,-0.0206,-0.0213,-0.0128,-0.0128,-0.0128,-0.0128,0,0,0.0139,0.0099,0.0091,0.0074,0.0042,0.0017,-0.0016,-0.005,-0.0068,-0.0094,-0.0123,-0.0168,-0.0163,-0.0183,-0.0191,-0.0214,-0.0252,-0.0205,-0.0206,-0.0214,-0.0306,-0.0311,-0.0319,-0.0252,-0.0253,-0.0254,-0.0304,0,0.0094,0.0035,0.0026,-0.0026,-0.0056,-0.0058,-0.0087,-0.0111,-0.0124,-0.0152,-0.0167,-0.0199,-0.0189,-0.0202,-0.0224,-0.0242,-0.0271,-0.0239,-0.0281,-0.0282,-0.0275,-0.0328,-0.0333,-0.0379,-0.0311,-0.0312,-0.0313,0,0.0034,0.0007,-0.0048,-0.0076,-0.0089,-0.0115,-0.0147,-0.0173,-0.02,-0.0208,-0.0231,-0.0236,-0.0272,-0.0254,-0.0305,-0.0283,-0.0301,-0.0312,-0.0314,-0.032,-0.0301,-0.0336,-0.0394,-0.0401,-0.0323,-0.0322,-0.0321,0,0.0003,-0.0046,-0.0086,-0.01,-0.0134,-0.0152,-0.0167,-0.0193,-0.0213,-0.0241,-0.0254,-0.0286,-0.0304,-0.0329,-0.0343,-0.0329,-0.0393,-0.0376,-0.0402,-0.0402,-0.0417,-0.0416,-0.0479,-0.0425,-0.0425,-0.0425,-0.0425,0,-0.0047,-0.0081,-0.01,-0.0124,-0.0163,-0.0174,-0.0212,-0.0226,-0.0249,-0.0277,-0.0281,-0.0307,-0.0323,-0.0352,-0.0363,-0.0404,-0.0412,-0.0421,-0.0423,-0.0421,-0.042,-0.0434,-0.0432,-0.0427,-0.0427,-0.0426,-0.0426,0,-0.0088,-0.0102,-0.0145,-0.0174,-0.0181,-0.0209,-0.0233,-0.0258,-0.027,-0.0306,-0.0315,-0.0336,-0.0371,-0.0386,-0.0429,-0.0436,-0.0483,-0.0483,-0.0474,-0.0476,-0.0501,-0.0499,-0.0577,-0.0588,-0.0525,-0.0526,-0.0526,0,-0.012,-0.0146,-0.0177,-0.0195,-0.0211,-0.0241,-0.0261,-0.0273,-0.0293,-0.0326,-0.0347,-0.0381,-0.0409,-0.0464,-0.0484,-0.0517,-0.0518,-0.0543,-0.0524,-0.0521,-0.0521,-0.052,-0.0523,-0.0548,-0.0548,-0.0549,-0.0549,0,-0.0176,-0.0181,-0.0209,-0.024,-0.0263,-0.0288,-0.0313,-0.0328,-0.0344,-0.0367,-0.0402,-0.0424,-0.0467,-0.0502,-0.0536,-0.0552,-0.0554,-0.0555,-0.0563,-0.0562,-0.0556,-0.0561,-0.0486,-0.0554,-0.0553,-0.0553,-0.0553,-0.0552,-0.0214,-0.0238,-0.0263,-0.0294,-0.0314,-0.0337,-0.0361,-0.0377,-0.0405,-0.0441,-0.0446,-0.0484,-0.0511,-0.0556,-0.0574,-0.0604,-0.0599,-0.061,-0.0613,-0.0616,-0.0618,-0.055,-0.061,-0.061,-0.061,-0.061,-0.061,0,-0.0271,-0.0287,-0.0316,-0.035,-0.0375,-0.0372,-0.0399,-0.0421,-0.0453,-0.0478,-0.0505,-0.0545,-0.0579,-0.0601,-0.0635,-0.0655,-0.0657,-0.0664,-0.0663,-0.0667,-0.0621,-0.0611,-0.0662,-0.0662,-0.0662,-0.0662,-0.0662,-0.0662,-0.0304,-0.0344,-0.0352,-0.0402,-0.0419,-0.0455,-0.047,-0.0492,-0.0511,-0.0556,-0.0583,-0.0597,-0.0621,-0.0656,-0.0687,-0.0693,-0.0706,-0.0714,-0.0719,-0.0676,-0.067,-0.0665,-0.0657,-0.0716,-0.0716,-0.0764,-0.0764,-0.0765]},{"header":{"parameterUnit":"m.s-1","parameterCategory":1,"la1":30.2991,"la2":30.254,"lo1":-89.0895,"lo2":-89.0444,"dy":0.0017,"dx":0.0017,"nx":28,"ny":28,"refTime":"2025-01-14T03:00:00:Z","depth":0,"parameterNumber":3,"parameterNumberName":"V-component_of_WINDS"},"data":[0,0,0,0,0,0,0,0,0,0,0,0,0,0,0,0,0,0,0,0,0,0,0,0,0,0,0,0,0,0,0,0,0,0,0,0,0,0,0,0,0,0,0,0,0,0,0,0,0,0,0,0,0,0,0,0,0,0,-4.0839,-4.0839,0,-4.0897,-4.0897,-4.0898,-4.084,-4.0837,-4.0835,-4.0833,-4.0892,-4.0896,-4.0899,0,0,0,0,0,0,0,0,0,0,0,0,0,-4.0679,-4.0683,-4.0839,-4.0839,-4.084,-4.0897,-4.0897,-4.0898,-4.084,-4.0837,-4.0835,-4.0832,-4.0891,-4.0895,-4.09,0,0,0,0,0,0,0,0,0,0,0,0,0,-4.0744,-4.0684,-4.0839,-4.0818,-4.0817,-4.0896,-4.0897,-4.0898,-4.0841,-4.0837,-4.0834,-4.0831,-4.0889,-4.0895,-4.09,-4.1003,0,0,-4.0917,-4.092,0,0,0,0,0,0,0,0,-4.074,-4.075,-4.082,-4.082,-4.0818,-4.0857,-4.0863,-4.0933,-4.0842,-4.0832,-4.0833,-4.0829,-4.0883,-4.0889,-4.0907,-4.1006,-4.1008,-4.0918,-4.0921,-4.0923,-4.0925,0,0,0,0,0,0,0,-4.0736,-4.0747,-4.0862,-4.0821,-4.082,-4.0806,-4.0812,-4.0876,-4.0876,-4.0832,-4.0828,-4.0836,-4.0882,-4.0902,-4.0908,-4.1009,-4.0917,-4.0922,-4.0926,-4.0928,-4.1197,-4.1201,0,0,0,0,0,0,-4.0734,-4.0744,-4.086,-4.0863,-4.077,-4.0812,-4.0818,-4.0848,-4.0875,-4.0876,-4.0839,-4.0833,-4.0894,-4.0902,-4.091,-4.1034,-4.0923,-4.0929,-4.0932,-4.1194,-4.1198,-4.1202,0,0,0,0,0,0,-4.0731,-4.0745,-4.0857,-4.0803,-4.0816,-4.0818,-4.0853,-4.0851,-4.0871,-4.088,-4.088,-4.0859,-4.0892,-4.0902,-4.0981,-4.1035,-4.0931,-4.0936,-4.1189,-4.1195,-4.12,-4.1282,0,0,0,0,0,0,-4.0726,-4.0744,-4.0782,-4.0804,-4.0819,-4.0927,-4.0856,-4.0855,-4.0881,-4.0874,-4.0899,-4.09,-4.089,-4.0973,-4.0987,-4.1041,-4.094,-4.1184,-4.1192,-4.1198,-4.1275,-4.129,-4.1303,0,0,0,0,0,-4.0721,-4.0803,-4.0785,-4.0799,-4.0867,-4.093,-4.0939,-4.0926,-4.0886,-4.0925,-4.0931,-4.0899,-4.1027,-4.0982,-4.0996,-4.1053,-4.1181,-4.119,-4.1198,-4.1268,-4.1287,-4.1303,0,0,0,0,0,0,-4.0787,-4.0805,-4.0785,-4.0876,-4.0902,-4.092,-4.0969,-4.0946,-4.0984,-4.0975,-4.0958,-4.0964,-4.1048,-4.1058,-4.1007,-4.1156,-4.1097,-4.1109,-4.1146,-4.1164,-4.1178,-4.1174,-4.0945,0,0,0,0,0,-4.0812,-4.0861,-4.0874,-4.0954,-4.0968,-4.0967,-4.0994,-4.0982,-4.1008,-4.1018,-4.103,-4.1056,-4.1103,-4.1133,-4.1176,-4.1276,-4.1281,-4.1322,-4.1336,-4.1348,-4.1359,-4.1415,-4.1434,-4.1231,-4.123,-4.123,0,0,-4.0864,-4.088,-4.0913,-4.0968,-4.0986,-4.1039,-4.0976,-4.1033,-4.1073,-4.1027,-4.1102,-4.1112,-4.1141,-4.1231,-4.1271,-4.1242,-4.1416,-4.1359,-4.1368,-4.1373,-4.1425,-4.1445,-4.1462,-4.1236,-4.1235,-4.1234,0,0,-4.0987,-4.1004,-4.1073,-4.1093,-4.1123,-4.1122,-4.1138,-4.1161,-4.1166,-4.1241,-4.1209,-4.1255,-4.1334,-4.1357,-4.1379,-4.1513,-4.1486,-4.1527,-4.1602,-4.1656,-4.1672,-4.1687,-4.1736,-4.1754,-4.1538,-4.1538,-4.1538,0,-4.1049,-4.1126,-4.1111,-4.1172,-4.1198,-4.1159,-4.123,-4.125,-4.1293,-4.1312,-4.1279,-4.138,-4.1396,-4.1492,-4.1525,-4.1543,-4.1563,-4.1525,-4.1671,-4.1685,-4.1698,-4.1746,-4.1764,-4.1543,-4.1542,-4.1542,-4.1541,0,-4.1202,-4.1256,-4.1308,-4.1351,-4.1383,-4.1448,-4.1443,-4.1477,-4.1463,-4.1466,-4.1545,-4.1563,-4.1611,-4.1632,-4.1618,-4.1727,-4.1708,-4.1674,-4.1615,-4.1723,-4.1767,-4.1785,-4.155,-4.1548,-4.1547,-4.1546,0,0,-4.1367,-4.1402,-4.1421,-4.1441,-4.1472,-4.1514,-4.1578,-4.1625,-4.1656,-4.1686,-4.1741,-4.181,-4.1779,-4.1804,-4.1793,-4.184,-4.1948,-4.18,-4.18,-4.1828,-4.2071,-4.2098,-4.2119,-4.193,-4.1933,-4.1936,-4.2069,0,-4.1492,-4.1604,-4.1593,-4.17,-4.1751,-4.1716,-4.1773,-4.1798,-4.1803,-4.1848,-4.1852,-4.1903,-4.1857,-4.1872,-4.1918,-4.1925,-4.1997,-4.1915,-4.1981,-4.1984,-4.1977,-4.2142,-4.217,-4.2295,-4.2086,-4.2089,-4.2091,0,-4.1652,-4.169,-4.1803,-4.1828,-4.1849,-4.19,-4.1943,-4.1986,-4.2014,-4.2015,-4.2044,-4.2025,-4.2091,-4.2031,-4.2122,-4.2067,-4.2093,-4.2101,-4.2106,-4.2112,-4.2045,-4.2155,-4.2334,-4.2354,-4.2118,-4.2116,-4.2114,0,-4.1764,-4.1843,-4.1921,-4.1939,-4.197,-4.2007,-4.2021,-4.2047,-4.2076,-4.2114,-4.2134,-4.2178,-4.2203,-4.2239,-4.2233,-4.2189,-4.2327,-4.2265,-4.233,-4.233,-4.2361,-4.2359,-4.2549,-4.2376,-4.2376,-4.2375,-4.2375,0,-4.1906,-4.1976,-4.1972,-4.202,-4.2099,-4.2086,-4.2164,-4.2174,-4.2198,-4.2248,-4.222,-4.2268,-4.2256,-4.2304,-4.2299,-4.2377,-4.2388,-4.2391,-4.2389,-4.2394,-4.2394,-4.2412,-4.2404,-4.238,-4.2379,-4.2378,-4.2377,0,-4.2044,-4.2044,-4.2127,-4.215,-4.2158,-4.2215,-4.2235,-4.2281,-4.2284,-4.2348,-4.2362,-4.2367,-4.2422,-4.2419,-4.2481,-4.2478,-4.2574,-4.2561,-4.2565,-4.2563,-4.2628,-4.2623,-4.2837,-4.2866,-4.2673,-4.2674,-4.2676,0,-4.2135,-4.2189,-4.2219,-4.225,-4.2268,-4.2319,-4.235,-4.234,-4.2373,-4.2411,-4.2453,-4.2506,-4.2547,-4.2637,-4.2646,-4.2693,-4.2683,-4.2755,-4.269,-4.2694,-4.2686,-4.2683,-4.269,-4.2768,-4.277,-4.2772,-4.2773,0,-4.2298,-4.2296,-4.2341,-4.2387,-4.2425,-4.246,-4.2493,-4.2521,-4.2514,-4.2553,-4.2609,-4.2642,-4.2706,-4.2759,-4.2805,-4.282,-4.2797,-4.2794,-4.2811,-4.2818,-4.2818,-4.2821,-4.2601,-4.2789,-4.2787,-4.2786,-4.2785,-4.2785,-4.2416,-4.2463,-4.2492,-4.2544,-4.2568,-4.26,-4.2645,-4.2654,-4.2701,-4.2753,-4.2744,-4.2808,-4.2837,-4.2897,-4.2917,-4.2966,-4.2941,-4.2966,-4.2973,-4.298,-4.2988,-4.281,-4.2975,-4.2974,-4.2974,-4.2973,-4.2973,0,-4.2579,-4.2596,-4.2644,-4.2692,-4.2733,-4.2707,-4.2743,-4.2779,-4.2836,-4.2865,-4.2907,-4.2973,-4.3025,-4.3039,-4.3089,-4.3127,-4.3117,-4.314,-4.3138,-4.3143,-4.3007,-4.2987,-4.3147,-4.3147,-4.3147,-4.3147,-4.3147,-4.3147,-4.2668,-4.2747,-4.2749,-4.284,-4.2857,-4.2919,-4.2942,-4.2972,-4.2996,-4.3071,-4.3114,-4.3123,-4.3147,-4.3199,-4.3246,-4.3249,-4.3269,-4.3297,-4.3296,-4.3169,-4.3152,-4.3135,-4.3117,-4.3301,-4.3301,-4.3427,-4.3428,-4.3429]}]]